This demonstration page uses our WeatherBlox Daily Observations layout. Learn more.

Left ArrowRight Arrow

Hourly Observations for October 5, 2015

Temp ( °F °C ) Dew Point ( °F °C ) Humidity (%) Winds ( mph kmh ) Pressure ( in mb ) Visibility ( mi km ) Precip ( " mm )
12:53 am 00:53 Clear 70 21.1 50 10 49 49 VRB 3 6 29.67 1005 10 16 0.00 0.00
1:53 am 01:53 Clear 64 17.8 48 8.9 56 56 NNE 5 7 29.69 1005 10 16 0.00 0.00
2:53 am 02:53 Clear 62 16.7 48 8.9 60 60 Calm 29.72 1006 10 16 0.00 0.00
3:53 am 03:53 Clear 60 15.6 47 8.3 62 62 Calm 29.73 1007 10 16 0.00 0.00
4:53 am 04:53 Clear 58 14.4 46 7.8 65 65 Calm 29.76 1008 10 16 0.00 0.00
5:53 am 05:53 Clear 57 13.9 45 7.2 64 64 Calm 29.78 1009 10 16 0.00 0.00
6:53 am 06:53 Clear 56 13.3 45 7.2 67 67 Calm 29.82 1010 10 16 0.00 0.00
7:53 am 07:53 Sunny 57 13.9 45 7.2 64 64 Calm 29.83 1010 10 16 0.00 0.00
8:53 am 08:53 Sunny 63 17.2 45 7.2 52 52 Calm 29.85 1011 10 16 0.00 0.00
9:53 am 09:53 Sunny 70 21.1 47 8.3 44 44 Calm 29.85 1011 10 16 0.00 0.00
10:53 am 10:53 Sunny 72 22.2 48 8.9 43 43 SSW 6 9 29.85 1011 10 16 0.00 0.00
11:53 am 11:53 Sunny 75 23.9 48 8.9 39 39 VRB 5 7 29.84 1010 10 16 0.00 0.00
12:53 pm 12:53 Sunny 78 25.6 48 8.9 35 35 VRB 3 6 29.82 1010 10 16 0.00 0.00
1:53 pm 13:53 Sunny 80 26.7 47 8.3 31 31 VRB 5 7 29.80 1009 10 16 0.00 0.00
2:53 pm 14:53 Sunny 83 28.3 46 7.8 27 27 S 6 9 29.77 1008 10 16 0.00 0.00
3:53 pm 15:53 Sunny 85 29.4 46 7.8 26 26 SSE 6 9 29.76 1008 10 16 0.00 0.00
4:53 pm 16:53 Sunny 86 30 46 7.8 25 25 S 6 9 29.76 1008 10 16 0.00 0.00
5:53 pm 17:53 Sunny 85 29.4 49 9.4 29 29 SSE 12 19 29.77 1008 10 16 0.00 0.00
6:53 pm 18:53 Clear 78 25.6 50 10 37 37 SSE 10 17 29.79 1009 10 16 0.00 0.00
7:53 pm 19:53 Clear 75 23.9 51 10.6 43 43 SSE 7 11 29.82 1010 10 16 0.00 0.00
8:53 pm 20:53 Clear 73 22.8 51 10.6 46 46 Calm 29.86 1011 10 16 0.00 0.00
9:53 pm 21:53 Clear 70 21.1 51 10.6 51 51 Calm 29.89 1012 10 16 0.00 0.00
10:53 pm 22:53 Clear 67 19.4 51 10.6 57 57 Calm 29.93 1013 10 16 0.00 0.00
11:53 pm 23:53 Clear 63 17.2 49 9.4 60 60 NE 5 7 29.95 1014 10 16 0.00 0.00

Powered by AerisWeather